Location: Sperry Observatory
(40.6664°N, 74.3236°W)
Time: 07:59:56
(UTC-04:00)

Amateur Radio Satellites - All Passes

Search period start: 29 August 2014 07:29
Search period end: 30 August 2014 07:29
Location: Sperry Observatory, 40.6664°N, 74.3236°W

Satellite Date Start Highest point End Downlink Frequencies (MHz)
Time Altitude Azimuth
SO-67 29 Aug 07:34:44 07:37:46 28° 96° (E) 07:40:47 435.3500 MHz FM
RS-15 29 Aug 07:36:56 07:47:19 48° 110° (ESE) 07:57:29 29.354 - 29.394 USB, Beacon 29.352 USB
AO-7 29 Aug 07:40:40 07:46:13 20° 309° (NW) 07:51:47 29.400 - 29.500 MHz
Saudisat 1A 29 Aug 08:01:35 08:05:59 65° 55° (NE) 08:10:21 436.775 MHz
KITSAT 1 29 Aug 08:11:18 08:18:46 39° 47° (NE) 08:26:11 435.175 FM
STRAND 1 29 Aug 08:19:53 08:22:50 15° 269° (W) 08:25:47 ?
JAS-2 29 Aug 08:24:08 08:28:04 22° 295° (WNW) 08:32:10 435.800 - 435.900 CW/SSB, 435.910 FM
SO-67 29 Aug 09:08:26 09:10:36 16° 292° (WNW) 09:12:44 435.3500 MHz FM
HO-68 29 Aug 09:22:38 09:29:10 37° 98° (E) 09:35:39 435.675 MHz FM
Saudisat 1A 29 Aug 09:43:02 09:45:01 13° 252° (WSW) 09:46:59 436.775 MHz
RS-15 29 Aug 09:48:51 09:59:32 52° 313° (NW) 10:10:09 29.354 - 29.394 USB, Beacon 29.352 USB
KITSAT 1 29 Aug 10:06:38 10:14:23 53° 248° (WSW) 10:22:06 435.175 FM
UKube-1 29 Aug 10:14:40 10:18:57 55° 101° (E) 10:23:11 145.840 MHz, 145.915 MHz
Oscar 11 29 Aug 10:22:37 10:26:49 44° 99° (E) 10:30:58 145.825 FM, Beacon 2401.500 USB
FUNcube-1 29 Aug 10:43:44 10:47:44 30° 96° (E) 10:51:46 145.950 - 145.970 MHz USB
HO-68 29 Aug 11:10:15 11:16:53 43° 295° (WNW) 11:23:31 435.675 MHz FM
ISS 29 Aug 11:25:19 11:28:38 73° 141° (SE) 11:31:57 145.800 FM
SO-50 29 Aug 11:49:29 11:52:45 18° 42° (NE) 11:56:03 436.795 FM
UKube-1 29 Aug 11:52:24 11:54:41 14° 297° (WNW) 11:56:58 145.840 MHz, 145.915 MHz
Oscar 11 29 Aug 11:59:47 12:02:39 17° 295° (WNW) 12:05:30 145.825 FM, Beacon 2401.500 USB
RS-15 29 Aug 12:07:24 12:15:17 22° 344° (NNW) 12:23:14 29.354 - 29.394 USB, Beacon 29.352 USB
FUNcube-1 29 Aug 12:20:16 12:24:00 26° 291° (WNW) 12:27:47 145.950 - 145.970 MHz USB
MaSat-1 29 Aug 12:35:02 12:37:30 14° 99° (E) 12:40:03 437.345 MHz
Oscar 19 29 Aug 12:44:07 12:48:17 26° 66° (ENE) 12:52:29 437.125 CW, 437.150 USB
JAS-1B 29 Aug 12:58:14 13:06:07 30° 61° (ENE) 13:13:21 435.800 - 435.900 CW/SSB
ISS 29 Aug 13:03:02 13:05:39 21° 339° (NNW) 13:08:17 145.800 FM
ITAMSAT 1 29 Aug 13:13:19 13:17:10 22° 64° (ENE) 13:21:01 435.822 SSB
PANSAT 29 Aug 13:13:32 13:14:38 11° 170° (S) 13:15:44 not established
Oscar 16 29 Aug 13:17:42 13:22:42 53° 72° (ENE) 13:27:44 437.025 USB, Beacon 2401.1428
Uribyol 2 29 Aug 13:23:07 13:27:26 28° 66° (ENE) 13:31:46 436.500 FM
AO-Echo 29 Aug 13:23:49 13:28:03 28° 68° (ENE) 13:32:12 ?
SO-50 29 Aug 13:29:02 13:33:49 72° 240° (WSW) 13:38:39 436.795 FM
AO-27 29 Aug 13:40:49 13:45:35 39° 69° (ENE) 13:50:21 436.795 MHz FM
UOSAT-12 29 Aug 13:57:40 14:01:29 24° 45° (NE) 14:05:16 437.025 FM, 437.400 FM
Gurwin Techsat 1B 29 Aug 14:00:40 14:05:02 27° 66° (ENE) 14:09:25 435.225 FM
MaSat-1 29 Aug 14:08:59 14:13:49 71° 297° (WNW) 14:18:58 437.345 MHz
Oscar 19 29 Aug 14:22:36 14:27:24 39° 262° (W) 14:32:16 437.125 CW, 437.150 USB
RS-15 29 Aug 14:24:53 14:33:10 23° 21° (NNE) 14:41:34 29.354 - 29.394 USB, Beacon 29.352 USB
ISS 29 Aug 14:41:50 14:43:22 13° 360° (N) 14:44:54 145.800 FM
JAS-1B 29 Aug 14:46:03 14:55:55 75° 257° (WSW) 15:04:56 435.800 - 435.900 CW/SSB
ITAMSAT 1 29 Aug 14:51:21 14:56:19 47° 260° (W) 15:01:19 435.822 SSB
PANSAT 29 Aug 14:52:11 14:54:04 13° 183° (S) 14:55:57 not established
TMSAT-1 29 Aug 14:52:14 14:57:23 57° 72° (ENE) 15:02:35 436.925 FM
AO-7 29 Aug 14:54:01 15:00:47 29° 56° (NE) 15:07:31 29.400 - 29.500 MHz
Oscar 16 29 Aug 14:58:55 15:02:22 18° 268° (W) 15:05:51 437.025 USB, Beacon 2401.1428
Uribyol 2 29 Aug 15:02:04 15:06:46 35° 263° (W) 15:11:29 436.500 FM
AO-Echo 29 Aug 15:02:09 15:06:42 33° 263° (W) 15:11:10 ?
AO-27 29 Aug 15:20:57 15:25:11 25° 265° (W) 15:29:26 436.795 MHz FM
UOSAT-12 29 Aug 15:37:20 15:41:52 47° 243° (WSW) 15:46:19 437.025 FM, 437.400 FM
Gurwin Techsat 1B 29 Aug 15:39:53 15:44:48 39° 262° (W) 15:49:45 435.225 FM
MaSat-1 29 Aug 15:49:54 15:51:49 12° 316° (NW) 15:53:45 437.345 MHz
Uosat F 29 Aug 15:50:56 15:55:35 40° 69° (ENE) 16:00:15 435.120 FM
PCSat 29 Aug 15:58:35 15:59:57 11° 101° (ESE) 16:01:19 145.825 MHz
ISS 29 Aug 16:18:29 16:21:05 20° 20° (NNE) 16:23:40 145.800 FM
TMSAT-1 29 Aug 16:34:15 16:37:40 17° 269° (W) 16:41:07 436.925 FM
RS-15 29 Aug 16:37:38 16:48:33 59° 50° (NE) 16:59:50 29.354 - 29.394 USB, Beacon 29.352 USB
JAS-1B 29 Aug 16:41:59 16:47:24 16° 273° (W) 16:52:38 435.800 - 435.900 CW/SSB
AO-7 29 Aug 16:44:37 16:52:55 69° 255° (WSW) 17:01:14 29.400 - 29.500 MHz
JAS-2 29 Aug 16:51:40 16:55:55 20° 64° (ENE) 16:59:53 435.800 - 435.900 CW/SSB, 435.910 FM
Oscar 10/S400 29 Aug 16:54:13 17:10:18 29° 145° (SE) 17:30:36 145.825 - 145.975 CW/USB, Beacon 145.810 USB
OPAL 29 Aug 17:07:42 17:12:41 44° 101° (E) 17:17:37 ?
Sapphire 29 Aug 17:07:49 17:12:57 46° 112° (ESE) 17:18:06 437.095 MHz 1200 baud AX-25 AFSK
Uosat F 29 Aug 17:30:34 17:34:30 23° 266° (W) 17:38:26 435.120 FM
PCSat 29 Aug 17:37:06 17:42:30 89° 118° (ESE) 17:47:58 145.825 MHz
Hamsat 29 Aug 17:52:53 17:57:08 61° 75° (ENE) 18:01:26 145.90 MHz
ISS 29 Aug 17:54:48 17:58:08 78° 218° (SW) 18:01:28 145.800 FM
SO-67 29 Aug 18:10:21 18:10:38 10° 65° (ENE) 18:10:55 435.3500 MHz FM
JAS-2 29 Aug 18:34:26 18:40:40 60° 258° (WSW) 18:46:15 435.800 - 435.900 CW/SSB, 435.910 FM
AO-7 29 Aug 18:44:46 18:47:06 11° 273° (W) 18:49:26 29.400 - 29.500 MHz
OPAL 29 Aug 18:47:08 18:51:17 25° 297° (WNW) 18:55:25 ?
STRAND 1 29 Aug 18:49:59 18:53:48 21° 94° (E) 18:57:35 ?
RS-15 29 Aug 18:50:27 19:00:31 42° 252° (WSW) 19:11:00 29.354 - 29.394 USB, Beacon 29.352 USB
Sapphire 29 Aug 18:52:00 18:56:33 27° 311° (NW) 19:01:10 437.095 MHz 1200 baud AX-25 AFSK
PCSat 29 Aug 19:23:18 19:26:41 17° 318° (NW) 19:30:04 145.825 MHz
Hamsat 29 Aug 19:32:07 19:33:30 11° 271° (W) 19:34:53 145.90 MHz
SO-67 29 Aug 19:39:53 19:43:14 47° 261° (W) 19:46:36 435.3500 MHz FM
HO-68 29 Aug 19:51:36 19:57:25 28° 60° (ENE) 20:03:15 435.675 MHz FM
STRAND 1 29 Aug 20:28:20 20:33:11 45° 290° (WNW) 20:38:01 ?
UKube-1 29 Aug 21:09:50 21:13:59 46° 72° (ENE) 21:18:09 145.840 MHz, 145.915 MHz
Oscar 11 29 Aug 21:17:28 21:21:21 33° 70° (ENE) 21:25:16 145.825 FM, Beacon 2401.500 USB
HO-68 29 Aug 21:37:40 21:44:40 59° 258° (WSW) 21:51:43 435.675 MHz FM
FUNcube-1 29 Aug 21:40:39 21:43:54 22° 67° (ENE) 21:47:12 145.950 - 145.970 MHz USB
Saudisat 1A 29 Aug 22:09:09 22:12:06 18° 110° (ESE) 22:15:04 436.775 MHz
MaSat-1 29 Aug 22:27:31 22:31:25 26° 53° (NE) 22:34:55 437.345 MHz
KITSAT 1 29 Aug 22:40:53 22:47:02 25° 104° (ESE) 22:53:11 435.175 FM
UKube-1 29 Aug 22:47:51 22:50:25 15° 267° (W) 22:53:00 145.840 MHz, 145.915 MHz
Oscar 11 29 Aug 22:54:18 22:57:36 21° 266° (W) 23:00:55 145.825 FM, Beacon 2401.500 USB
FUNcube-1 29 Aug 23:16:29 23:20:09 29° 264° (W) 23:23:53 145.950 - 145.970 MHz USB
Saudisat 1A 29 Aug 23:47:03 23:51:19 48° 307° (NW) 23:55:37 436.775 MHz
MaSat-1 30 Aug 00:04:28 00:08:25 30° 255° (WSW) 00:11:53 437.345 MHz
KITSAT 1 30 Aug 00:33:34 00:41:39 73° 303° (WNW) 00:49:46 435.175 FM
PCSat 30 Aug 00:44:03 00:46:20 13° 38° (NE) 00:48:37 145.825 MHz
Oscar 16 30 Aug 01:30:39 01:34:22 20° 93° (E) 01:38:03 437.025 USB, Beacon 2401.1428
AO-27 30 Aug 01:55:41 01:58:16 14° 90° (E) 02:00:50 436.795 MHz FM
Sapphire 30 Aug 01:56:02 02:01:03 36° 53° (NE) 02:06:01 437.095 MHz 1200 baud AX-25 AFSK
PCSat 30 Aug 02:25:25 02:30:50 66° 59° (ENE) 02:36:12 145.825 MHz
KITSAT 1 30 Aug 02:32:46 02:38:34 21° 326° (NW) 02:44:24 435.175 FM
Oscar 19 30 Aug 02:34:03 02:39:17 76° 103° (ESE) 02:44:27 437.125 CW, 437.150 USB
JAS-1B 30 Aug 02:35:00 02:40:53 31° 93° (E) 02:46:04 435.800 - 435.900 CW/SSB
ITAMSAT 1 30 Aug 03:04:16 03:09:25 63° 102° (ESE) 03:14:33 435.822 SSB
Oscar 16 30 Aug 03:08:57 03:13:58 50° 289° (WNW) 03:18:58 437.025 USB, Beacon 2401.1428
TMSAT-1 30 Aug 03:09:03 03:13:14 23° 94° (E) 03:17:24 436.925 FM
AO-Echo 30 Aug 03:09:03 03:13:46 80° 103° (ESE) 03:18:29 ?
Uribyol 2 30 Aug 03:14:27 03:19:40 84° 104° (ESE) 03:24:53 436.500 FM
AO-27 30 Aug 03:33:06 03:38:15 70° 286° (WNW) 03:43:24 436.795 MHz FM
Sapphire 30 Aug 03:39:35 03:44:23 33° 250° (WSW) 03:49:09 437.095 MHz 1200 baud AX-25 AFSK
SO-50 30 Aug 03:43:57 03:48:05 39° 116° (ESE) 03:52:20 436.795 FM
Gurwin Techsat 1B 30 Aug 03:55:54 04:01:15 87° 104° (ESE) 04:06:33 435.225 FM
Uosat F 30 Aug 04:00:59 04:02:54 12° 90° (E) 04:04:49 435.120 FM
PCSat 30 Aug 04:10:19 04:13:40 17° 256° (WSW) 04:17:00 145.825 MHz
Oscar 19 30 Aug 04:15:16 04:17:57 14° 300° (WNW) 04:20:38 437.125 CW, 437.150 USB
OPAL 30 Aug 04:22:17 04:27:18 75° 72° (ENE) 04:32:27 ?
JAS-1B 30 Aug 04:25:24 04:31:40 39° 296° (WNW) 04:37:09 435.800 - 435.900 CW/SSB
ITAMSAT 1 30 Aug 04:45:09 04:48:23 17° 298° (WNW) 04:51:37 435.822 SSB
AO-7 30 Aug 04:46:43 04:54:30 43° 100° (E) 05:02:13 29.400 - 29.500 MHz
TMSAT-1 30 Aug 04:48:19 04:53:18 43° 290° (WNW) 04:58:17 436.925 FM
AO-Echo 30 Aug 04:50:29 04:51:53 11° 300° (WNW) 04:53:16 ?
Uribyol 2 30 Aug 04:56:08 04:58:26 13° 301° (WNW) 05:00:43 436.500 FM
SO-50 30 Aug 05:25:02 05:28:46 25° 314° (NW) 05:32:36 436.795 FM
Uosat F 30 Aug 05:37:12 05:42:13 74° 286° (WNW) 05:47:11 435.120 FM
Gurwin Techsat 1B 30 Aug 05:38:11 05:40:27 13° 301° (WNW) 05:42:42 435.225 FM
Hamsat 30 Aug 05:41:19 05:42:46 11° 89° (E) 05:44:13 145.90 MHz
JAS-2 30 Aug 05:44:56 05:47:48 14° 92° (E) 05:50:44 435.800 - 435.900 CW/SSB, 435.910 FM
UOSAT-12 30 Aug 05:47:49 05:52:18 56° 118° (ESE) 05:56:55 437.025 FM, 437.400 FM
OPAL 30 Aug 06:04:40 06:06:44 12° 268° (W) 06:08:50 ?
STRAND 1 30 Aug 06:05:34 06:09:57 30° 67° (ENE) 06:14:20 ?
KITSAT 1 30 Aug 06:32:48 06:37:40 17° 28° (NNE) 06:42:30 435.175 FM
Saudisat 1A 30 Aug 06:35:25 06:38:18 17° 42° (NE) 06:41:11 436.775 MHz
AO-7 30 Aug 06:39:34 06:47:15 44° 298° (WNW) 06:54:53 29.400 - 29.500 MHz
RS-15 30 Aug 07:02:01 07:11:38 36° 106° (ESE) 07:21:03 29.354 - 29.394 USB, Beacon 29.352 USB
SO-67 30 Aug 07:05:42 07:06:56 12° 91° (E) 07:08:11 435.3500 MHz FM
Hamsat 30 Aug 07:14:49 07:19:08 61° 285° (WNW) 07:23:23 145.90 MHz
